TIME,DELAY(SENSOR),PRES,T(CTD),SAL,OXYGEN,RAWTEMP,T(OPTODE),TCPHASE,FLUOR,BETA(BETA700),BETA(BETA412),BETA(BETA440),CDOM,C(CSC),ED(ED411.90),ED(ED443.80),ED(ED489.40),ED(ED554.70),LU(LU412.20),LU(LU443.80),LU(LU489.40),LU(LU555.00),COMP,TILTX,TILTX(TILTY),CHECK
1379430480,5808,497.1300048828125000,17.6571006774902340,36.4818000793457000,204.4835052490234400,166.6596984863281200,17.6538105010986330,32.4887504577636700,142,4130,48,55,47,9209,2146961161,2147517394,2147269650,2147455012,2147081682,2146953353,2147660388,2147127030,3358,-1,8,36826
1379430619,5805,486.4800109863281000,17.7553997039794920,36.4990997314453100,205.3103027343750000,163.4087982177734400,17.7519302368164060,32.3967285156250000,143,4130,47,56,47,9210,2146958363,2147513417,2147267547,2147454701,2147081508,2146956681,2147657782,2147129234,2558,-1,8,51862
1379430760,5804,475.8800048828125000,17.8274002075195300,36.5102005004882800,205.1190032958984400,161.0621948242187500,17.8227691650390620,32.3748703002929700,141,4130,48,55,47,9209,2146963410,2147517284,2147272265,2147449947,2147083346,2146957860,2147655314,2147129152,2264,-1,8,18962
1379430911,5806,464.6600036621094000,17.8799991607666000,36.5159988403320300,205.0493011474609400,159.4080047607422000,17.8727092742919920,32.3561210632324200,143,4130,48,55,47,9210,2146959780,2147514962,2147269522,2147450112,2147080630,2146957549,2147654409,2147128228,2181,-2,8,24075
1379431053,5807,452.9100036621094000,17.9405994415283200,36.5247001647949200,207.6958007812500000,157.1192016601562500,17.9418201446533200,32.1754493713378900,141,4130,48,55,47,9208,2146959122,2147515547,2147271753,2147453952,2147082569,2146953344,2147655899,2147132315,989,-1,8,9009
1379431166,5808,441.9200134277344000,18.0018005371093750,36.5326004028320300,209.4008941650390600,155.2964019775390600,17.9968605041503900,32.0556602478027340,140,4130,48,56,47,9208,2146958336,2147512868,2147272713,2147452114,2147079680,2146960173,2147654793,2147129755,950,-1,8,60510
1379431283,5803,430.6799926757812500,18.0377998352050780,36.5360984802246100,210.7248992919922000,154.0637969970703000,18.0340900421142580,31.9659404754638670,142,4130,47,55,47,9210,2146958555,2147516544,2147268672,2147450432,2147081188,2146954980,2147651282,2147129938,3113,-1,8,41604
1379431398,5804,419.5199890136719000,18.0909004211425780,36.5395011901855500,210.5063934326172000,152.3341979980468800,18.0863304138183600,31.9542198181152340,141,4130,48,56,47,9209,2146959661,2147513865,2147268982,2147450861,2147081133,2146958363,2147655460,2147127597,2451,-1,8,46255
1379431513,5807,408.3500061035156000,18.1501998901367200,36.5447998046875000,211.6564941406250000,150.4046020507812500,18.1446208953857420,31.8648395538330080,141,4130,48,55,46,9210,2146959168,2147515931,2147268690,2147451392,2147078445,2146957430,2147652992,2147129618,2204,-1,8,3243
1379431630,5809,397.0799865722656000,18.1900997161865230,36.5480995178222660,215.2458038330078000,148.8094024658203000,18.1928100585937500,31.6492595672607420,140,4130,48,56,47,9212,2146958125,2147514541,2147270537,2147449929,2147083538,2146956580,2147652123,2147129554,1660,-1,8,17649
1379431745,5805,386.0700073242187500,18.2259998321533200,36.5485000610351560,216.1502075195312500,147.8695068359375000,18.2212009429931640,31.5884609222412100,141,4130,48,56,48,9214,2146957476,2147514477,2147269467,2147447689,2147078518,2146955227,2147654308,2147129316,1001,-1,8,8374
1379431860,5805,375.1300048828125000,18.2686004638671880,36.5516014099121100,217.2041931152343800,146.4076995849609400,18.2653808593750000,31.5125999450683600,140,4130,48,57,46,9213,2146959195,2147515748,2147270326,2147449718,2147084288,2146955200,2147652690,2147127378,840,-1,8,50539
1379431977,5805,364.1300048828125000,18.2985992431640620,36.5498008728027340,220.8045959472656200,145.5135040283203000,18.2924003601074220,31.3122997283935550,140,4130,47,56,47,9211,2146959113,2147511314,2147265737,2147449051,2147073243,2146958116,2147654372,2147129133,3290,-2,8,27693
1379432092,5806,353.4899902343750000,18.3237991333007800,36.5489997863769500,224.2389984130859400,144.6222991943359400,18.3193302154541000,31.1238899230957030,139,4130,49,55,47,9214,2146959936,2147517568,2147271332,2147449782,2147081325,2146961334,2147653988,2147130450,2221,-2,8,29152
1379432221,5804,341.7999877929687500,18.3602008819580080,36.5521011352539060,226.2073059082031200,143.4362030029297000,18.3551807403564450,31.0085105895996100,142,4130,47,55,46,9215,2146963757,2147512164,2147268946,2147447012,2147075940,2146954185,2147652141,2147124781,1025,-1,8,17233
1379432336,5805,331.4700012207031000,18.3745994567871100,36.5500984191894500,228.9716033935547000,142.7931976318359400,18.3746109008789060,30.8618392944335940,141,4130,48,55,48,9214,2146959597,2147515163,2147268818,2147448960,2147079789,2146960448,2147652105,2147128987,207,-1,8,47244
1379432463,5804,320.0899963378906000,18.4228992462158200,36.5569992065429700,228.6934051513672000,141.5733032226562500,18.4114799499511720,30.8591804504394530,139,4130,48,56,47,9214,2146960868,2147512731,2147269366,2147449965,2147074816,2146960777,2147653549,2147125211,3083,-1,8,11244
1379432580,5806,309.5100097656250000,18.4388999938964840,36.5553016662597660,229.0758972167968800,140.6791992187500000,18.4385108947753900,30.8285903930664060,140,4130,47,54,47,9217,2146958994,2147513362,2147270528,2147447954,2147079049,2146958793,2147655186,2147129270,2256,-1,8,42784
1379432707,5807,298.0599975585937500,18.4657001495361330,36.5563011169433600,229.2568054199218800,139.9152984619140600,18.4616107940673830,30.8092308044433600,139,4130,47,56,47,9216,2146959021,2147513234,2147269586,2147448448,2147080457,2146960493,2147656704,2147131766,1694,-1,8,37614
1379432836,5807,286.5700073242187500,18.4981002807617200,36.5540008544921900,228.8298034667968800,138.8170013427734400,18.4948101043701170,30.8156299591064450,141,4130,49,55,47,9215,2146960950,2147512905,2147268781,2147447990,2147074770,2146961590,2147659282,2147127232,983,-1,8,65310
1379432963,5804,275.3699951171875000,18.5349006652832030,36.5583000183105500,228.2028045654297000,137.6239013671875000,18.5308799743652340,30.8307590484619140,140,4130,48,55,47,9217,2146961353,2147516598,2147271286,2147445293,2147083648,2146960932,2147662610,2147126345,538,-1,8,32538
1379433090,5805,264.6900024414062500,18.5694007873535160,36.5581016540527340,227.9812011718750000,136.4774017333984400,18.5655498504638670,30.8266601562500000,140,4130,48,55,46,9216,2146963666,2147518098,2147267529,2147445595,2147077266,2146961188,2147665947,2147129453,2775,-1,8,10278
1379433231,5806,253.3099975585937500,18.6124992370605470,36.5629005432128900,227.7362060546875000,135.0366973876953000,18.6091194152832030,30.8195304870605470,140,4130,48,56,46,9213,2146959780,2147519762,2147267254,2147444617,2147077449,2146964571,2147674770,2147129005,1495,-1,8,44129
1379433370,5807,242.3099975585937500,18.6739997863769530,36.5643005371093750,225.0325927734375000,133.0563964843750000,18.6690101623535160,30.9286403656005860,140,4130,50,55,47,9216,2146964114,2147514176,2147270921,2147447259,2147074852,2146973513,2147686729,2147129682,820,-1,8,59075
1379433524,5805,228.8000030517578000,18.7490005493164060,36.5672988891601560,225.0316009521484400,130.5903015136718800,18.7436103820800780,30.8956108093261720,140,4130,47,56,46,9210,2146962413,2147513563,2147272457,2147445778,2147073737,2146985828,2147725869,2147131638,2873,-1,8,2590
1379433626,5807,218.4499969482422000,18.8383007049560550,36.5741996765136700,224.6047973632812500,127.5692977905273400,18.8350200653076170,30.8768501281738280,139,4130,48,55,47,9212,2146959771,2147514788,2147271936,2147446144,2147080018,2147002523,2147762678,2147134491,1885,-1,8,3347
1379433741,5805,207.0899963378906200,18.9144992828369140,36.5754013061523440,225.3386993408203000,124.9220962524414000,18.9151401519775400,30.8047904968261720,139,4130,48,56,47,9210,2146958729,2147516306,2147270518,2147445997,2147079506,2147019565,2147784667,2147138066,614,-1,8,26540
1379433846,5805,197.6499938964843800,19.0692996978759770,36.5820007324218750,224.1244964599609400,120.1780014038086000,19.0587692260742200,30.8027496337890620,139,4130,48,55,47,9213,2146958793,2147518070,2147271241,2147444507,2147081856,2147024347,2147785947,2147134893,3119,-2,8,36900
1379433901,5803,193.1300048828125000,19.1039009094238280,36.5903015136718750,223.8087005615234400,118.5603027343750000,19.1077594757080080,30.7972908020019530,140,4130,46,56,47,9215,2146959826,2147516105,2147271789,2147446893,2147083190,2147020297,2147776941,2147135588,3540,-1,8,60810
1379433956,5806,188.6799926757812500,19.2168006896972660,36.6068992614746100,219.7342071533203000,115.0548019409179700,19.2139396667480470,30.9590091705322270,139,4130,48,56,47,9216,2146961152,2147519341,2147270884,2147441837,2147084653,2147043008,2147822363,2147138843,344,-2,8,46284
1379434011,5805,184.3699951171875000,19.2684001922607420,36.6057014465332000,217.1446075439453000,113.1596984863281200,19.2713603973388670,31.0683593750000000,140,4130,49,54,47,9217,2146959862,2147518363,2147274578,2147445787,2147084187,2147050642,2147823698,2147139254,3220,-1,8,21043
1379434066,5805,179.9700012207031200,19.3502006530761720,36.6151008605957000,214.7908935546875000,110.4746017456054700,19.3527297973632800,31.1565799713134770,139,4130,46,56,46,9219,2146961188,2147518473,2147275492,2147446774,2147093787,2147096420,2147911424,2147145051,3180,-1,8,63804
1379434151,5806,173.6600036621093800,19.5097999572753900,36.6029014587402340,217.3092956542968800,105.6250000000000000,19.4997501373291000,30.9590892791748050,138,4130,48,57,46,9215,2146961078,2147520749,2147275584,2147444288,2147092342,2147130349,2147977865,2147147876,2768,-2,8,19450
1379434206,5811,169.9100036621093800,19.5774993896484380,36.6015014648437500,220.4763946533203000,103.0609970092773400,19.5775203704834000,30.7614593505859380,140,4130,48,54,47,9215,2146957970,2147518784,2147276918,2147440457,2147096100,2147142720,2147993060,2147149513,2645,-1,8,2718
1379434261,5806,166.0899963378906200,19.6385993957519530,36.6035995483398440,222.5402069091797000,101.1355972290039000,19.6359195709228500,30.6306591033935550,140,4130,47,57,46,9211,2146964041,2147517001,2147276772,2147446619,2147094966,2147120054,2147935104,2147144658,2871,-1,8,43297
1379434328,5808,161.4100036621093800,19.7301998138427730,36.6092987060546900,224.0182037353515600,98.1510467529296900,19.7264804840087900,30.5164108276367200,139,4130,47,56,46,9213,2146960347,2147521243,2147280758,2147442422,2147114633,2147207387,2148089764,2147155675,3579,-1,8,14142
1379434383,5806,157.5899963378906200,19.7896995544433600,36.6133003234863300,223.8903961181640600,96.3422470092773400,19.7813796997070300,30.4992694854736330,140,4130,48,54,47,9212,2146958829,2147524626,2147290788,2147442020,2147141540,2147382848,2148413540,2147172324,316,-1,8,1024
1379434468,5805,152.1999969482422000,19.8642005920410160,36.6137008666992200,224.1414031982422000,93.7047729492187500,19.8614501953125000,30.4516506195068360,140,4130,49,55,46,9212,2146962880,2147528365,2147291638,2147443712,2147149248,2147414381,2148452132,2147179145,777,-1,8,32565
1379434547,5805,148.4900054931640600,19.9062004089355470,36.6137008666992200,224.4718017578125000,92.4453277587890600,19.8996906280517580,30.4186897277832030,140,4130,47,55,46,9208,2146961417,2147530614,2147300361,2147441033,2147181924,2147548699,2148662573,2147194322,1175,-1,8,39367
1379434638,5803,144.8500061035156200,20.0056991577148440,36.6189994812011700,223.7012023925781200,89.3941879272461000,19.9923591613769530,30.4172897338867200,140,4130,48,55,47,9206,2146967168,2147532982,2147306898,2147441673,2147217673,2147724434,2148952795,2147214061,1286,-1,9,63255
1379434755,5809,141.1399993896484400,20.0956001281738280,36.6288986206054700,220.4826049804687500,86.2642669677734400,20.0874595642089840,30.5393104553222660,141,4130,49,56,46,9211,2146963593,2147538477,2147315803,2147443401,2147254683,2147882834,2149183469,2147228882,1775,-1,9,65338
1379434882,5806,136.9700012207031200,20.2064990997314450,36.6180000305175800,220.5446929931640600,82.7435302734375000,20.1944694519042970,30.4898109436035160,140,4130,47,55,46,9206,2146968603,2147546907,2147321819,2147442368,2147310848,2148060672,2149452699,2147246528,1907,-1,9,60956
1379435009,5806,132.9199981689453000,20.3547992706298830,36.6111984252929700,221.1540069580078000,77.9576263427734400,20.3400192260742200,30.3960304260253900,141,4130,48,56,47,9199,2146967808,2147547136,2147323849,2147442962,2147350070,2148141421,2149526592,2147251318,1894,-2,8,33257
1379435126,5807,128.5700073242187500,20.4668006896972660,36.6119995117187500,223.7350006103515600,73.9328536987304700,20.4624805450439450,30.2133293151855470,142,4130,47,56,47,9197,2146970020,2147551670,2147329024,2147440182,2147397860,2148264905,2149667181,2147263616,1648,-1,8,38656
1379435217,5807,124.8399963378906200,20.5604991912841800,36.6094017028808600,225.7234039306640600,70.9855728149414000,20.5522003173828120,30.0760307312011720,142,4130,48,55,47,9198,2146978212,2147566089,2147356452,2147443218,2147561856,2148775561,2150415853,2147317056,799,-1,8,18754
1379435320,5804,120.9800033569336000,20.6494007110595700,36.6102981567382800,230.3152008056640600,68.0903167724609400,20.6403598785400400,29.8141098022460940,142,4130,48,56,45,9197,2146977371,2147570907,2147359186,2147438235,2147643282,2148942537,2150599552,2147329307,3322,-2,9,33729
1379435430,5803,116.2500000000000000,20.8376998901367200,36.6185989379882800,235.5252075195312500,62.0492095947265600,20.8244400024414060,29.4888591766357420,142,4130,48,56,47,9191,2146973522,2147556790,2147330011,2147438957,2147533769,2148399058,2149665042,2147275145,2924,-2,8,19451
1379435509,5809,112.5699996948242200,20.9834995269775400,36.6158981323242200,238.4329986572265600,57.1492385864257800,20.9738597869873050,29.2908191680908200,142,4130,49,55,48,9189,2146973092,2147544841,2147312548,2147435483,2147475465,2148098048,2149168521,2147242651,2573,-1,8,21473
1379435600,5804,108.6100006103515600,21.1879005432128900,36.6167984008789060,239.0505065917968800,50.8314781188964840,21.1666603088378900,29.1817893981933600,142,4130,48,55,46,9184,2146982528,2147568091,2147346505,2147435693,2147759488,2148831844,2150214016,2147325430,3365,-1,9,22133
1379435693,5807,105.0500030517578100,21.3939990997314450,36.6198997497558600,245.2328033447265600,43.7102203369140600,21.3841991424560550,28.8122596740722660,144,4130,47,56,47,9183,2146998080,2147596717,2147403574,2147439323,2148179218,2149861403,2151654509,2147442523,535,-2,9,3387
1379435844,5805,101.5100021362304700,21.6629009246826170,36.6110992431640600,251.6007995605468800,35.1158218383789060,21.6470603942871100,28.4257202148437500,144,4130,47,56,47,9174,2147001609,2147602596,2147413412,2147436690,2148343085,2150113444,2151957540,2147478052,694,-2,8,46264
1379436013,5802,98.7099990844726600,21.7814998626709000,36.6025009155273440,258.6579895019531000,30.9682006835937500,21.7740402221679700,28.0756607055664060,146,4130,48,56,46,9171,2147028763,2147655140,2147490989,2147444013,2149149074,2151821211,2154189732,2147670153,1138,-1,9,59228
1379436068,5805,96.6699981689453100,21.9563007354736330,36.5779991149902340,263.3846130371094000,25.5161991119384770,21.9410800933837900,27.8137893676757800,145,4130,47,55,47,9171,2147040301,2147669833,2147506139,2147443565,2149421101,2152269202,2154672438,2147719506,1457,-2,8,43648
1379436123,5807,94.8499984741211000,22.1417007446289060,36.5931015014648440,266.1682128906250000,20.0013599395751950,22.1102104187011720,27.6334095001220700,145,4130,46,56,46,9171,2147051611,2147688219,2147527222,2147444900,2149743926,2152833828,2155296612,2147783460,2002,-1,9,58778
1379436178,5806,93.3000030517578100,22.2259006500244140,36.5900993347168000,268.0404968261719000,17.1055107116699220,22.1990795135498050,27.5231609344482420,145,4130,48,56,47,9162,2147066166,2147710756,2147555081,2147446189,2150136182,2153565522,2156196278,2147867748,2259,-2,9,21161
1379436269,5806,91.1600036621093800,22.3143005371093750,36.5774002075195300,279.2489013671875000,14.4572000503540040,22.2803897857666000,27.0562705993652340,145,4130,48,56,47,9155,2147081225,2147731474,2147585362,2147448384,2150560667,2154264301,2156954139,2147949330,2552,-2,9,32849
1379436355,5804,88.4400024414062500,22.5294990539550780,36.5784988403320300,285.0745849609375000,7.1590209007263180,22.5046691894531250,26.7503299713134770,144,4130,49,55,47,9154,2147066002,2147696448,2147524224,2147441654,2150179209,2153065517,2155133010,2147816210,2336,-2,8,7264
1379436410,5809,86.1200027465820300,22.6784000396728500,36.5693016052246100,275.8429870605469000,1.9343999624252320,22.6654090881347660,27.0340194702148440,143,4130,48,56,47,9151,2147041033,2147647424,2147440914,2147437266,2149401974,2151265910,2152675602,2147600109,1845,-2,9,48766
1379436465,5802,84.3899993896484400,22.7894992828369140,36.5717010498046900,272.1064147949219000,-1.2847160100936890,22.7645206451416000,27.1390590667724600,143,4130,47,56,46,9153,2147046592,2147653494,2147455862,2147437760,2149565805,2151450980,2152845248,2147623981,1480,-2,9,17086
1379436520,5804,83.4000015258789000,22.8502006530761720,36.5699996948242200,273.8685913085937500,-3.2481279373168945,22.8250102996826170,27.0470409393310550,142,4130,49,57,47,9159,2147074194,2147702729,2147523273,2147441380,2150373778,2152910345,2154577481,2147784566,1135,-2,9,28154
1379436677,5806,81.2300033569336000,23.0062999725341800,36.5555992126464840,277.6968994140625000,-8.9164943695068360,22.9997406005859380,26.8322601318359380,143,4130,48,56,47,9156,2147067428,2147671113,2147468690,2147439122,2150075977,2151992182,2153107885,2147666148,1048,-2,9,11356
1379436744,5807,79.3000030517578100,23.4468002319335940,36.5517005920410160,278.6480102539062500,-21.6783790588378900,23.3938598632812500,26.6427803039550780,142,4130,48,56,47,9156,2147111542,2147734948,2147548745,2147441590,2151208475,2153877321,2155141522,2147867638,474,-1,8,24521
1379436871,5808,77.7500000000000000,23.5405006408691400,36.5513000488281250,305.9814147949219000,-25.8467502593994140,23.5228004455566400,25.6201705932617200,142,4130,48,55,46,9155,2147184548,2147843757,2147680685,2147447515,2153139081,2157166518,2158819721,2148229485,3451,-2,9,46994
1379437016,5806,75.2399978637695300,23.9071006774902340,36.5158996582031250,359.1258850097656000,-37.2230110168457000,23.8752899169921880,23.8552894592285160,143,4130,48,56,47,9153,2147374262,2148109988,2147994870,2147464329,2158062765,2165062244,2167002450,2149055899,3261,-2,9,50494
1379437155,5807,73.7900009155273400,24.0084991455078120,36.5138015747070300,412.0372924804687500,-39.8889312744140600,23.9580192565917970,22.4485607147216800,142,4130,48,55,46,9156,2147378925,2148104649,2147984484,2147467099,2158268269,2164951140,2166385609,2149011318,232,-1,8,29400
1379437312,5807,71.1500015258789000,24.3362998962402340,36.4954986572265600,414.6834106445312500,-51.0231590270996100,24.3040409088134770,22.2613201141357420,146,4130,48,55,47,9160,2147489389,2148239259,2148112557,2147470070,2161293622,2168979803,2169870445,2149383680,1215,-2,9,32294
1379437391,5807,69.1600036621093800,24.4277992248535160,36.4894981384277340,406.3747863769531000,-54.6024208068847660,24.4154605865478500,22.4226493835449220,143,4130,48,57,46,9154,2147521700,2148274322,2148134802,2147476699,2162246829,2169970660,2170379538,2149454500,1130,-2,9,61805
1379437482,5808,67.4100036621093800,24.4972000122070300,36.4830017089843750,401.1915893554687500,-56.9751586914062500,24.4893703460693360,22.5238304138183600,142,4130,47,57,46,9157,2147597915,2148362596,2148222518,2147482294,2164315995,2172684589,2172602029,2149698934,974,-2,8,6839
1379437603,5804,64.9899978637695300,24.5818996429443360,36.4753990173339840,387.0161132812500000,-59.7859382629394500,24.5769805908203120,22.8506908416748050,141,4130,48,58,47,9153,2147436105,2148094893,2147871634,2147460333,2159804946,2164601865,2163455497,2148787346,493,-1,8,41474
1379437670,5807,62.9700012207031250,24.7418994903564450,36.4579010009765600,377.1860046386719000,-64.6363372802734400,24.7282905578613280,23.0529899597167970,140,4130,47,56,46,9150,2147695698,2148411675,2148185526,2147478125,2166721901,2174189723,2171993865,2149690057,160,-2,8,38304
1379437737,5805,61.0600013732910160,24.9409008026123050,36.4502983093261700,405.5051879882812500,-70.7519989013671900,24.9193191528320300,22.2646808624267580,139,4130,48,56,46,9149,2147804059,2148502518,2148230893,2147480356,2169099776,2176693138,2173567122,2149876416,3163,-2,9,18627
1379437804,5806,59.3699989318847660,25.2714004516601560,36.4174003601074200,417.7840881347656000,-80.3346862792968800,25.2192192077636720,21.8636608123779300,141,4130,48,56,45,9149,2148217334,2148995163,2148717888,2147511469,2179827456,2191345920,2186643117,2151306377,3087,-2,9,2608
1379437902,5803,57.2400016784668000,25.5407009124755860,36.3877983093261700,489.7835083007812500,-89.6909027099609400,25.5127105712890620,20.2004909515380860,142,4130,48,56,46,9150,2148592173,2149399213,2149077586,2147536466,2189372178,2203379190,2196491364,2152533842,2994,-2,9,5676
1379438005,5801,55.8699989318847660,25.6902008056640620,36.3671989440918000,493.0458068847656000,-94.7094879150390600,25.6704196929931640,20.0816402435302730,142,4130,47,57,47,9145,2148155227,2148852800,2148508461,2147496868,2177913682,2186873536,2181375168,2150879149,2316,-2,9,32119
1379438309,5807,53.2700004577636700,26.0261001586914060,36.3184013366699200,482.5508117675781000,-105.3907012939453100,26.0067691802978500,20.1766891479492200,141,4130,47,55,46,9139,2149042230,2149818066,2149367149,2147555145,2200568082,2215026294,2204468763,2153593005,2207,-2,9,8714
1379438601,5806,51.8699989318847660,26.4388999938964840,36.2676010131835940,503.6585083007812500,-118.5492019653320300,26.4224300384521500,19.6183300018310550,139,4130,48,55,47,9134,2149384082,2150115090,2149627190,2147582573,2208567643,2222411958,2209063433,2154212077,1416,-2,9,54124
1379438857,5809,49.7200012207031250,26.5380992889404300,36.2312011718750000,554.3878784179688000,-122.4170989990234400,26.5449008941650400,18.6449508666992200,138,4130,47,56,46,9138,2149508882,2150146221,2149629376,2147624219,2213216009,2225052699,2208829897,2154354084,1016,-2,9,21651
1379438926,5809,47.8199996948242200,26.7094993591308600,36.1829986572265600,495.3041076660156000,-126.9386978149414000,26.6882305145263670,19.6911296844482420,133,4130,48,56,45,9132,2148388114,2148852717,2148324818,2147491437,2182599524,2185200484,2174572772,2150211044,697,-2,8,33736
1379439019,5809,45.9599990844726560,26.7903003692626950,36.1655006408691400,530.4525146484375000,-130.1788024902343800,26.7910499572753900,18.9907608032226560,135,4130,47,55,47,9139,2150667401,2151211739,2150400018,2147665499,2239969618,2254675062,2230210898,2157053558,97,-1,9,794
1379439166,5809,43.6399993896484400,26.9584999084472660,36.1791000366210940,587.8684082031250000,-135.3710021972656200,26.9560108184814450,17.9398307800292970,137,4130,49,55,47,9136,2151212544,2151654400,2150600768,2147645430,2252162633,2265718454,2236456658,2157895698,2535,-1,9,40973
1379439235,5805,41.7799987792968750,26.9848003387451170,36.1879005432128900,538.6798706054688000,-136.4465942382812500,26.9902191162109380,18.7749500274658200,137,4130,47,55,46,9136,2151790509,2152146075,2150937334,2147686253,2267991131,2280992338,2246537883,2159588233,2354,-2,8,33386
1379439304,5804,39.6100006103515600,27.0069999694824220,36.1944999694824200,517.3546142578125000,-137.3265991210937500,27.0182094573974600,19.1571903228759770,136,4130,48,56,46,9133,2152779190,2153058761,2151627282,2147753609,2293166281,2306826550,2264081846,2162013549,2199,-2,9,16849
1379439361,5806,37.6300010681152340,27.0137996673584000,36.1953010559082000,516.4495849609375000,-137.4992065429687500,27.0237007141113280,19.1723194122314450,134,4130,47,55,47,9134,2152844964,2153030116,2151568758,2147763373,2303505892,2317449298,2271798957,2163505965,2218,-1,9,33732